Showing default

OPS 9324 (IDSCS 11), 2651

Orbit data source: Space-Track

OPS 9324 (IDSCS 11), 2651 is a payload satellite owned by USAF SSD (US) in GEO that was launched on Wed, 18 Jan 1967 UTC via a TITAN IIIC launch vehicle from the Air Force Eastern Test Range (AFETR). Payload-class satellites include a variety of spacecraft equipped with specific instruments for various scientific and technological missions. These include communications satellites like Starlink; space stations such as the ISS; scientific satellites like the Hubble; Earth observation satellites from companies like Planet Labs, Umbra, and HawkEye 360; GPS; miniature CubeSats for education and research; and military/defense satellites.

Not visible in the next 10 days
Identifier
2651, 1967-003D
Orbit
GEO
Last TLE update
1 day ago
Origin
Manufacturer
Philco-Ford WDL
Mission
Non-operational Defense Communications
Bus & Motor
IDCSP, Unknown motor
Mass
45 kg wet, 45 kg dry
Launch date (UTC)
1967-01-18 (58 years ago)
Launch vehicle
TITAN IIIC
Launch site
Air Force Eastern Test Range (AFETR)
Object type
Payload
Rocket body
Debris
Shape & HBR
Ico Poly, 0.9 m
Radar Cross Section
0.926 m², Medium (>0.1 m² and < 1m²)

Expand to show TLE details & history

TLE from 1 day ago
0 OPS 9324 (IDSCS 11)
1 02651U 67003D   25128.08801527 -.00000080  00000-0  00000-0 0  9998
2 02651   7.5044  48.7515 0034954  84.4284  79.5398  1.08105015136362
Epoch: 2025-05-08T02:06Z
Definitive object data (Epoch: 2025-05-08T02:06:44.519Z)
Latitude
2.00315°
Longitude
-44.60172°
Altitude
33,698.735 km
Speed
3.155 km/s
True Right ascension
14h 12m 59s
True Declination
2° 00' 04"
Sunlit
Object was in daylight at TLE epoch
Visualization TLE readout
Latitude
-7.32846°
Longitude
48.30564°
Altitude
33,863.677 km
Speed
3.142 km/s
Apparent Right ascension
20h 52m 24s
Apparent Declination
-12° 48' 42"
Sunlit
Object is in daylight
Visualization observer readout
Local Sidereal Time
14:13:25
Azimuth
93.82° ESE
Elevation
-15.598°
Doppler factor
1
Orbital elements
Apogee altitude
33,865.62 km
Perigee altitude
33,585.264 km
Semi-major axis
40,103.579 km
Eccentricity
0.0034954
Inclination
7.5044°
RAAN
48.7515°
Arg. of periapsis
84.4284°
True anomaly
79.934°
Mean anomaly
79.5398°
Eccentric anomaly
79.73687°
Mean motion
0.27025 °/min
BSTAR
Unknown
Orbital period
1332.09 mins
Loading historical data...
2651 neighbors
Loading maneuver chart data...
Loading SW <> Apogee altitude chart data...
Loading historical data...
Loading historical data...
Loading historical data...
Loading historical data...
Loading historical data...
Loading historical data...
Loading historical data...

OPS 9324 (IDSCS 11) Visibility forecast

Observer location: undefined°, undefined°

OPS 9324 (IDSCS 11) is not visible in the next 10 days
Span
Click to sort rows by Start time (UTC) header in descending order
Start Az.
Max El. time (UTC)
Max El. Az.
Max El.
End time (UTC)
End Az.
|